{"data":{"norad_id":61001,"epoch":"2026-09-21T17:06:26.124768Z","epoch_age_seconds":87293,"freshness":"FRESH","line1":"1 61001U 24158M   26264.71280237  .00000073  00000+0  54560-5 0  9992","line2":"2 61001  53.1602  34.8382 0000585  58.9288 301.1788 15.69702074118372","mean_motion":15.69702074,"eccentricity":5.85e-5,"inclination_deg":53.1602,"raan_deg":34.8382,"arg_perigee_deg":58.9288,"mean_anomaly_deg":301.1788,"bstar":5.456e-6,"rev_number":11837,"period_min":91.737153428772,"perigee_km":359.35526533705,"apogee_km":360.14359804956,"semimajor_km":6737.8864316933,"source":"CELESTRAK","updated_at":"2026-09-22T09:00:49.296779Z"}}